Miscellaneous Local Product
Issued by NWS North Platte, NE

Home | Current Version | Previous Version | Graphics & Text | Print | Product List | Glossary On
Versions: 1 2 3 4 5 6 7 8 9 10 11 12 13 14 15 16 17 18 19 20 21 22 23 24 25 26 27 28 29 30 31 32 33 34 35 36 37 38 39 40 41 42 43 44 45 46 47 48 49 50
000
AXUS43 KLBF 240810
MISLBF


WESTERN AND NORTH CENTRAL NEBRASKA HOURLY WEATHER ROUNDUP
NATIONAL WEATHER SERVICE NORTH PLATTE NE
300 AM CDT SAT JUN 24 2017

NOTE: "FAIR" INDICATES FEW OR NO CLOUDS BELOW 12,000 FEET WITH NO
SIGNIFICANT WEATHER AND/OR OBSTRUCTIONS TO VISIBILITY.

NOTE: STATIONS NOT REPORTING VARIABLES SUCH AS SKY/WEATHER OR
PRESSURE ARE PROVIDED BY RAWS AND APRS NETWORKS AND ARE NOT UNDER
NATIONAL WEATHER SERVICE QUALITY CONTROL.

...OBSERVATIONS IN AND NEAR THE EASTERN PANHANDLE OF NEBRASKA...

CITY           SKY/WX    TMP DP  RH WIND       PRES   REMARKS
PINE RIDGE     CLEAR     39  34  82 CALM      30.26F
GORDON         FAIR      41  36  82 NW5       30.27S
CHADRON        CLEAR     42  36  79 SW5       30.28S
ALLIANCE       CLOUDY    48  42  80 W3        30.29S
SIDNEY         CLOUDY    54  36  50 NE7       30.31S
CRESCENT LAKE    N/A     53  40  62 CALM        N/A
$$

...OBSERVATIONS IN NORTHERN NEBRASKA AND FAR SOUTHERN SOUTH DAKOTA...

CITY           SKY/WX    TMP DP  RH WIND       PRES   REMARKS
WINNER         FAIR      47  34  60 SW6       30.18F
VALENTINE      PTCLDY    43  30  60 SW7       30.22R
THEDFORD       CLEAR     46  36  68 W5        30.26S
AINSWORTH      PTCLDY    46  38  72 W7        30.22R
O`NEILL        CLEAR     47  39  74 W6        30.19R
ORD            CLEAR     44  37  76 SW5       30.20R
BROKEN BOW     CLEAR     46  39  76 CALM      30.22S
VALENTINE NWR    N/A     47  39  75 CALM        N/A
HALSEY           N/A     49  34  57 CALM        N/A
BUTTE            N/A     49  36  60 W3          N/A
CHAMBERS         N/A     46  34  62 CALM        N/A
EWING            N/A     46  40  80 CALM        N/A
$$

...OBSERVATIONS IN SOUTHWEST NEBRASKA AND FAR NORTHEAST COLORADO...

CITY           SKY/WX    TMP DP  RH WIND       PRES   REMARKS
WRAY           FAIR      54  41  62 CALM      30.28S
IMPERIAL       MOCLDY    49  42  77 NE3       30.27R
OGALLALA       CLOUDY    54  44  67 CALM      30.28R
NORTH PLATTE   PTCLDY    45  39  79 SW3       30.26R
MCCOOK         PTCLDY    50  46  86 W5        30.24S
LEXINGTON      CLEAR     47  43  86 W7        30.24R
STAPLETON        N/A     49  38  65 CALM        N/A
GOTHENBURG       N/A     53  38  56 CALM        N/A
CALLAWAY         N/A     46  42  86 N3          N/A
$$

...OBSERVATIONS IN CENTRAL LINCOLN COUNTY AREA...

CITY           SKY/WX    TMP DP  RH WIND       PRES   REMARKS
N.P. AIRPORT   PTCLDY    45  39  79 SW3       30.26R
N.P. DOWNTOWN    N/A     52  40  64 CALM        N/A
N.P. SOUTHEAST   N/A     52  40  63 CALM        N/A
N.P. HILLCREST   N/A     50  37  62 NE5         N/A
$$

...SOME OBSERVATIONS FROM AROUND THE REGION...

CITY           SKY/WX    TMP DP  RH WIND       PRES   REMARKS
DENVER         PTCLDY    50  45  83 SW7       30.32F
LIMON          CLOUDY    52  43  71 N3        30.34F
ASPEN          CLOUDY    47  29  49 SW8       30.33S
LARAMIE        CLOUDY    45  33  63 E10       30.35F
CASPER         CLEAR     42  31  64 NE8       30.34S
CHEYENNE       CLOUDY    53  30  41 E8        30.35F
SCOTTSBLUFF    CLOUDY    55  37  50 CALM      30.31R
GRAND ISLAND   CLEAR     51  45  79 W5        30.20S
OMAHA          PTCLDY    55  48  77 N3        30.13S
SIOUX FALLS    CLEAR     51  43  74 W7        30.11S
PIERRE         CLEAR     49  40  71 SW9       30.14S
RAPID CITY     CLEAR     48  29  47 NW9       30.25S
BISMARCK       CLOUDY    51  40  65 NW10      30.11R
KANSAS CITY    CLEAR     59  55  87 NW7       30.11R
HILL CITY      CLEAR     52  49  89 N5        30.22F
WICHITA        MOCLDY    68  55  63 N7        30.14S
DODGE CITY     CLOUDY    63  55  75 W7        30.20S
OKLAHOMA CITY  CLOUDY    72  52  49 NE16      30.07S
DALLAS         CLOUDY    73  68  84 S8        29.94S
AMARILLO       CLOUDY    61  52  72 NE13      30.24R
$$




USA.gov is the U.S. government's official web portal to all federal, state and local government web resources and services.